Tracking 24120 objects as of 5-Dec-2021
HD Live streaming from Space Station
objects crossing your sky now

SL-3 R/B

Track SL-3 R/B now!
10-day predictions


NORAD ID: 14453
Int'l Code: 1983-109B
Perigee: 740.7 km
Apogee: 892.2 km
Inclination: 81.2 °
Period: 101.1 minutes
Semi major axis: 7187 km
RCS: 6.0066 m2 (large)
Launch date: October 28, 1983
Source: Commonwealth of Independent States (former USSR) (CIS)
Launch site: PLESETSK MISSILE AND SPACE COMPLEX (PKMTR)

Note: This is a ROCKET BODY
aabbcc
Your satellite tracking list
Your tracking list is empty




NASA's NSSDC Master Catalog

Two Line Element Set (TLE):
1 14453U 83109B   21338.24478300  .00000087  00000-0  30120-4 0  9998
2 14453  81.1668 265.3343 0105377  25.2225 335.4045 14.24762369979706
Source of the keplerian elements: AFSPC